Flag for Spain Weather past 2 weeks in Pamplona, Spain

Now
43 °F

Broken clouds.


Feels Like: 43 °F
Forecast: 41 / 51 °F
Wind: No wind

Location: Pamplona / Noain

Current Time: Jan 28, 2015 at 11:17:24 AM

Latest Report: Jan 28, 2015 at 10:30 AM


Visibility: N/A

Pressure: 30.27 "Hg

Humidity: 93%

Dew point: 41 °F

Location of PamplonaLocation

Historic Weather in Pamplona — Graph

°F

Pamplona temperature yesterday

Maximum temperature yesterday: 46 °F (at 11:00 AM)
Minimum temperature yesterday: 41 °F (at 6:00 PM)
Average temperature yesterday: 43 °F

Past Weeks' High & Low Weather Summary

 TemperatureHumidityPressure
High54 °F (Jan 14, 1:00 PM)100% (Jan 13, 10:30 AM)30.45 "Hg (Jan 13, 10:30 AM)
Low28 °F (Jan 20, 6:00 AM)42% (Jan 25, 2:00 PM)29.68 "Hg (Jan 21, 3:00 PM)
Average40 °F82%30.10 "Hg
* Reported Jan 13 10:00 AM — Jan 28 10:00 AM, Pamplona, Weather by CustomWeather, © 2014

Note: Actual official high and low records may vary slightly from our data, if they occured in-between our weather recording intervals... More about our weather records

Advertising

Pamplona weather history for previous 24 hours

 ConditionsComfort  
Time TempWeatherWind HumidityBarometerVisibility
10:00 AM
Jan 28
41 °FBroken clouds.No wind100%30.27 "HgN/A
9:30 AM41 °FBroken clouds.No wind100%30.27 "HgN/A
9:00 AM41 °FPartly sunny.No wind100%30.27 "HgN/A
8:30 AM41 °FMostly cloudy.1 mph93%30.27 "HgN/A
8:00 AM41 °FMostly cloudy.1 mph93%30.30 "HgN/A
7:30 AM41 °FPassing clouds.No wind93%30.30 "HgN/A
7:00 AM41 °FPassing clouds.No wind93%30.30 "HgN/A
6:30 AM41 °FPassing clouds.6 mph93%30.27 "Hg6 mi
6:00 AM41 °FPassing clouds.8 mph100%30.30 "HgN/A
5:30 AM41 °FPartly cloudy.6 mph100%30.30 "HgN/A
12:00 AM41 °FPassing clouds.8 mph100%30.39 "HgN/A
11:30 PM
Jan 27
41 °FPassing clouds.7 mph100%30.39 "HgN/A
11:00 PM41 °FLight rain. Passing clouds.6 mph100%30.39 "Hg6 mi
10:30 PM41 °FLight rain. Passing clouds.9 mph93%30.39 "HgN/A
10:00 PM41 °FPassing clouds.10 mph87%30.36 "HgN/A
9:30 PM41 °FLight rain. Passing clouds.8 mph87%30.36 "HgN/A
9:00 PM41 °FPassing clouds.7 mph93%30.36 "HgN/A
8:30 PM41 °FPassing clouds.8 mph93%30.36 "HgN/A
8:00 PM41 °FPassing clouds.8 mph93%30.36 "HgN/A
7:30 PM41 °FLight rain. Passing clouds.8 mph93%30.36 "Hg6 mi
7:00 PM41 °FLight rain. Partly cloudy.8 mph100%30.36 "Hg6 mi
6:30 PM41 °FPartly cloudy.10 mph93%30.36 "HgN/A
6:00 PM41 °FLight rain. Broken clouds.8 mph93%30.36 "HgN/A
5:30 PM43 °FLight rain. Broken clouds.10 mph87%30.36 "HgN/A
5:00 PM43 °FLight rain. Broken clouds.9 mph87%30.36 "HgN/A
4:30 PM43 °FPartly sunny.8 mph87%30.36 "Hg5 mi
4:00 PM43 °FPartly sunny.15 mph81%30.36 "Hg5 mi
3:30 PM45 °FPartly sunny.15 mph76%30.36 "HgN/A
3:00 PM45 °FPartly sunny.15 mph76%30.36 "HgN/A
2:30 PM45 °FPartly sunny.14 mph81%30.36 "HgN/A
2:00 PM45 °FPartly sunny.14 mph81%30.39 "HgN/A
1:30 PM45 °FPartly sunny.14 mph87%30.39 "HgN/A
1:00 PM46 °FPartly sunny.16 mph82%30.39 "HgN/A
12:30 PM46 °FPartly sunny.14 mph87%30.39 "HgN/A
12:00 PM46 °FPartly sunny.10 mph93%30.39 "HgN/A
11:30 AM46 °FPartly sunny.8 mph93%30.39 "HgN/A
11:00 AM46 °FPartly sunny.5 mph100%30.39 "HgN/A
Weather by CustomWeather, © 2014

See weather overviewHow to use our weather pages